Location: St Paul
(33.9360°N, 83.4200°W)
Time: 04:41:50
(UTC-05:00)

METEOR-M - Pass Details

Date: 06 October 2017
Orbit: 816 x 820 km, 98.4° (Epoch: 10 December)

Event Time Altitude Azimuth Distance (km) Brightness Sun altitude
Rises 19:28:23 0° 156° (SSE) 3,334 7.1 -4.5°
Reaches altitude 10° 19:30:45 10° 153° (SSE) 2,406 6.3 -5.0°
Maximum altitude 19:35:59 60° 74° (ENE) 937 4.2 -6.0°
Drops below altitude 10° 19:41:14 10° 356° (N) 2,419 6.6 -7.1°
Sets 19:43:37 0° 353° (N) 3,355 7.4 -7.6°
